| time (UTC) | temp F | wind direction | speed MPH | gust MPH | rain 1hr in | rain 24hr in | rain mn in | humidity % | barometer mb |
| 20260505003234 | 70 | 42 | 0.0 | 1.0 | 0.00 | 0.00 | 0.00 | 58 | 1009.1 |
| 20260505002233 | 71 | 155 | 3.0 | 3.0 | 0.00 | 0.00 | 0.00 | 53 | 1009.1 |
| 20260505001228 | 71 | 64 | 1.0 | 1.0 | 0.00 | 0.00 | 0.00 | 53 | 1009.2 |
| 20260505000229 | 70 | 44 | 2.0 | 3.0 | 0.00 | 0.00 | 0.00 | 52 | 1009.4 |
| 20260504235227 | 71 | 34 | 1.0 | 2.0 | 0.00 | 0.00 | 0.00 | 52 | 1009.4 |
| 20260504234227 | 71 | 13 | 3.0 | 3.0 | 0.00 | 0.00 | 0.00 | 54 | 1009.4 |
| 20260504233225 | 71 | 189 | 4.0 | 6.0 | 0.00 | 0.00 | 0.00 | 52 | 1009.5 |
| 20260504232225 | 70 | 234 | 5.0 | 6.0 | 0.00 | 0.00 | 0.00 | 53 | 1009.1 |
| 20260504231224 | 71 | 118 | 3.0 | 3.0 | 0.00 | 0.00 | 0.00 | 52 | 1009.5 |
| 20260504230219 | 70 | 30 | 1.0 | 1.0 | 0.00 | 0.00 | 0.00 | 55 | 1009.6 |
| 20260504225219 | 70 | 31 | 1.0 | 2.0 | 0.00 | 0.00 | 0.00 | 53 | 1009.5 |
| 20260504224220 | 70 | 347 | 2.0 | 2.0 | 0.00 | 0.00 | 0.00 | 54 | 1009.4 |
| 20260504223217 | 70 | 216 | 4.0 | 5.0 | 0.00 | 0.00 | 0.00 | 53 | 1009.6 |
| 20260504222217 | 70 | 58 | 1.0 | 2.0 | 0.00 | 0.00 | 0.00 | 55 | 1009.7 |
| 20260504221217 | 70 | 286 | 3.0 | 5.0 | 0.00 | 0.00 | 0.00 | 56 | 1009.6 |
| 20260504220217 | 71 | 26 | 4.0 | 6.0 | 0.00 | 0.00 | 0.00 | 55 | 1009.6 |
| 20260504215217 | 72 | 356 | 3.0 | 6.0 | 0.00 | 0.00 | 0.00 | 55 | 1009.6 |
| 20260504214215 | 73 | 22 | 2.0 | 2.0 | 0.00 | 0.00 | 0.00 | 55 | 1009.6 |
| 20260504213214 | 73 | 23 | 2.0 | 2.0 | 0.00 | 0.00 | 0.00 | 54 | 1009.7 |
| 20260504212213 | 74 | 334 | 2.0 | 2.0 | 0.00 | 0.00 | 0.00 | 52 | 1009.5 |
| 20260504211212 | 77 | 26 | 2.0 | 2.0 | 0.00 | 0.00 | 0.00 | 48 | 1009.8 |
| 20260504210207 | 76 | 34 | 2.0 | 3.0 | 0.00 | 0.00 | 0.00 | 49 | 1009.8 |
| 20260504205201 | 75 | 146 | 3.0 | 3.0 | 0.00 | 0.00 | 0.00 | 55 | 1010.0 |
| 20260504204158 | 73 | 140 | 1.0 | 2.0 | 0.00 | 0.00 | 0.00 | 63 | 1010.0 |
| 20260504203154 | 73 | 176 | 5.0 | 6.0 | 0.00 | 0.00 | 0.00 | 63 | 1009.9 |
| 20260504202151 | 77 | 57 | 1.0 | 2.0 | 0.00 | 0.00 | 0.00 | 55 | 1009.8 |
| 20260504201146 | 77 | 18 | 1.0 | 1.0 | 0.00 | 0.00 | 0.00 | 44 | 1009.9 |
| 20260504200145 | 77 | 126 | 2.0 | 2.0 | 0.00 | 0.00 | 0.00 | 58 | 1010.2 |
| 20260504195143 | 75 | 137 | 1.0 | 2.0 | 0.00 | 0.00 | 0.00 | 56 | 1010.0 |
| 20260504194142 | 75 | 196 | 4.0 | 5.0 | 0.00 | 0.00 | 0.00 | 57 | 1010.0 |
| 20260504193137 | 75 | 162 | 5.0 | 6.0 | 0.00 | 0.00 | 0.00 | 55 | 1010.2 |
| 20260504192132 | 75 | 59 | 1.0 | 1.0 | 0.00 | 0.00 | 0.00 | 53 | 1010.1 |
| 20260504191132 | 71 | 155 | 3.0 | 3.0 | 0.00 | 0.00 | 0.00 | 59 | 1010.0 |
| 20260504190131 | 70 | 175 | 4.0 | 5.0 | 0.00 | 0.00 | 0.00 | 63 | 1010.3 |
| 20260504185130 | 70 | 128 | 2.0 | 2.0 | 0.00 | 0.00 | 0.00 | 59 | 1010.3 |
| 20260504184126 | 70 | 196 | 4.0 | 5.0 | 0.00 | 0.00 | 0.00 | 57 | 1010.1 |
| 20260504183122 | 72 | 187 | 3.0 | 3.0 | 0.00 | 0.00 | 0.00 | 53 | 1010.1 |
| 20260504182122 | 70 | 83 | 3.0 | 3.0 | 0.00 | 0.00 | 0.00 | 55 | 1010.1 |
| 20260504181117 | 71 | 147 | 2.0 | 2.0 | 0.00 | 0.00 | 0.00 | 54 | 1010.1 |
| 20260504180114 | 71 | 41 | 1.0 | 1.0 | 0.00 | 0.00 | 0.00 | 52 | 1010.2 |
| 20260504175114 | 68 | 165 | 3.0 | 3.0 | 0.00 | 0.00 | 0.00 | 60 | 1010.3 |
| 20260504174114 | 66 | 167 | 3.0 | 5.0 | 0.00 | 0.00 | 0.00 | 62 | 1010.4 |
| 20260504173109 | 66 | 341 | 0.0 | 0.0 | 0.00 | 0.00 | 0.00 | 64 | 1010.5 |
| 20260504172107 | 66 | 197 | 2.0 | 2.0 | 0.00 | 0.00 | 0.00 | 64 | 1010.1 |
| 20260504171107 | 65 | 207 | 3.0 | 3.0 | 0.00 | 0.00 | 0.00 | 64 | 1010.2 |
| 20260504170106 | 64 | 128 | 1.0 | 2.0 | 0.00 | 0.00 | 0.00 | 71 | 1010.2 |
| 20260504151038 | 62 | 55 | 0.0 | 0.0 | 0.00 | 0.00 | 0.00 | 69 | 1009.9 |
| 20260504141026 | 55 | 41 | 1.0 | 1.0 | 0.00 | 0.00 | 0.00 | 80 | 1009.5 |
| 20260504081915 | 56 | 23 | 1.0 | 1.0 | 0.00 | 0.00 | 0.00 | 71 | 1008.7 |
| 20260504080914 | 56 | 28 | 1.0 | 1.0 | 0.00 | 0.00 | 0.00 | 72 | 1009.0 |
| 20260504045843 | 62 | 9 | 1.0 | 1.0 | 0.00 | 0.00 | 0.00 | 61 | 1009.0 |
| 20260504044841 | 62 | 3 | 1.0 | 2.0 | 0.00 | 0.00 | 0.00 | 61 | 1009.1 |
| 20260504043835 | 62 | 334 | 1.0 | 2.0 | 0.00 | 0.00 | 0.00 | 58 | 1008.9 |
| 20260504042835 | 61 | 18 | 1.0 | 1.0 | 0.00 | 0.00 | 0.00 | 61 | 1009.2 |
| 20260504041834 | 62 | 12 | 1.0 | 1.0 | 0.00 | 0.00 | 0.00 | 60 | 1009.1 |
| 20260504040832 | 63 | 21 | 0.0 | 0.0 | 0.00 | 0.00 | 0.00 | 59 | 1009.1 |
| 20260504035831 | 64 | 15 | 1.0 | 1.0 | 0.00 | 0.00 | 0.00 | 57 | 1009.0 |
| 20260504034826 | 65 | 15 | 0.0 | 1.0 | 0.00 | 0.00 | 0.00 | 56 | 1008.9 |
| 20260504033826 | 65 | 19 | 0.0 | 0.0 | 0.00 | 0.00 | 0.00 | 56 | 1008.9 |
| 20260504032826 | 66 | 15 | 1.0 | 1.0 | 0.00 | 0.00 | 0.00 | 54 | 1008.8 |
| 20260504031821 | 66 | 5 | 1.0 | 1.0 | 0.00 | 0.00 | 0.00 | 54 | 1008.7 |
| 20260504030820 | 67 | 27 | 0.0 | 0.0 | 0.00 | 0.00 | 0.00 | 53 | 1008.8 |
| 20260504025819 | 67 | 26 | 0.0 | 0.0 | 0.00 | 0.00 | 0.00 | 51 | 1009.1 |
| 20260504024819 | 68 | 21 | 0.0 | 0.0 | 0.00 | 0.00 | 0.00 | 51 | 1008.8 |
| 20260504023818 | 69 | 8 | 1.0 | 1.0 | 0.00 | 0.00 | 0.00 | 50 | 1009.2 |
| 20260504022816 | 69 | 37 | 0.0 | 0.0 | 0.00 | 0.00 | 0.00 | 48 | 1009.2 |
| 20260504021815 | 70 | 28 | 0.0 | 1.0 | 0.00 | 0.00 | 0.00 | 47 | 1009.3 |
| 20260504020810 | 71 | 27 | 1.0 | 1.0 | 0.00 | 0.00 | 0.00 | 46 | 1009.3 |
| 20260504015808 | 71 | 22 | 1.0 | 1.0 | 0.00 | 0.00 | 0.00 | 46 | 1009.3 |
| 20260504014807 | 71 | 347 | 1.0 | 2.0 | 0.00 | 0.00 | 0.00 | 46 | 1009.4 |
| 20260504013807 | 71 | 41 | 1.0 | 1.0 | 0.00 | 0.00 | 0.00 | 46 | 1009.5 |
| 20260504012807 | 73 | 345 | 3.0 | 5.0 | 0.00 | 0.00 | 0.00 | 45 | 1009.4 |
| 20260504011801 | 74 | 25 | 1.0 | 1.0 | 0.00 | 0.00 | 0.00 | 46 | 1009.8 |
| 20260504010759 | 75 | 340 | 1.0 | 2.0 | 0.00 | 0.00 | 0.00 | 45 | 1009.7 |
| 20260504005758 | 75 | 67 | 1.0 | 1.0 | 0.00 | 0.00 | 0.00 | 44 | 1009.8 |
| 20260504004753 | 74 | 133 | 0.0 | 1.0 | 0.00 | 0.00 | 0.00 | 44 | 1009.8 |